Change the Weather History Date:

Monday, September 16, 2013

  Actual Average Record
Temperature  
Mean Temperature 78 °F -  
Max Temperature 82 °F 85 °F 90 °F (1985)
Min Temperature 73 °F 70 °F 61 °F (1985)
Cooling Degree Days 12    
Growing Degree Days 28 (Base 50)    
Moisture  
Dew Point 71 °F    
Average Humidity 79    
Maximum Humidity 90    
Minimum Humidity 63    
Precipitation  
Precipitation 0.00 in - - ()
Sea Level Pressure  
Sea Level Pressure 30.03 in    
Wind  
Wind Speed 13 mph (NE)    
Max Wind Speed 22 mph    
Max Gust Speed 30 mph    
Visibility 10 miles    
Events      
Averages and records for this station are not official NWS values.
T = Trace of Precipitation, MM = Missing Value Source: NWS Daily Summary

Daily Weather History Graph

Daily Weather History Graph

Search for Another Location

Airport or City:

Trip Planner

Search our weather history database for the weather conditions in past years. The results will help you decide how hot, cold, wet, or windy it might be!

Date:

Astronomy

Sep. 16, 2013 Rise Set
Actual Time 6:15 AM HST 6:29 PM HST
Civil Twilight 5:53 AM HST 6:52 PM HST
Nautical Twilight 5:27 AM HST 7:17 PM HST
Astronomical Twilight 5:01 AM HST 7:43 PM HST
Moon 4:33 PM HST (9/16) 3:31 AM HST (9/16)
Length of Visible Light 12h 58m
Length of Day
12h 14m
Waxing Gibbous, 92% of the Moon is Illuminated
Sep 16
Waxing Gibbous
Sep 19
Full
Sep 26
Last Quarter
Oct 4
New
Oct 11
First Quarter

Hourly Weather History & Observations

Time (HST) Temp. Heat Index Dew Point Humidity Pressure Visibility Wind Dir Wind Speed Gust Speed Precip Events Conditions
12:54 AM 75.0 °F - 71.1 °F 87% 30.00 in 10.0 mi NE 12.7 mph 23.0 mph N/A   Clear
1:54 AM 75.0 °F - 71.1 °F 87% 30.00 in 10.0 mi NE 12.7 mph 21.9 mph N/A   Clear
2:54 AM 75.0 °F - 71.1 °F 87% 29.99 in 10.0 mi NE 11.5 mph 21.9 mph N/A   Clear
3:54 AM 73.9 °F - 68.0 °F 82% 29.99 in 10.0 mi NE 9.2 mph 17.3 mph N/A   Clear
4:54 AM 75.0 °F - 70.0 °F 84% 30.00 in 10.0 mi NE 12.7 mph 21.9 mph N/A   Scattered Clouds
5:54 AM 75.0 °F - 71.1 °F 87% 30.02 in 10.0 mi NE 13.8 mph 20.7 mph N/A   Clear
6:54 AM 75.0 °F - 71.1 °F 87% 30.04 in 10.0 mi NE 11.5 mph 21.9 mph N/A   Scattered Clouds
7:54 AM 78.1 °F - 71.1 °F 79% 30.05 in 10.0 mi NE 13.8 mph 21.9 mph N/A   Scattered Clouds
8:54 AM 79.0 °F - 71.1 °F 77% 30.06 in 10.0 mi NE 10.4 mph 21.9 mph N/A   Partly Cloudy
9:54 AM 81.0 °F 84.9 °F 71.1 °F 72% 30.07 in 10.0 mi NE 16.1 mph 23.0 mph N/A   Scattered Clouds
10:54 AM 81.0 °F 84.4 °F 70.0 °F 69% 30.06 in 10.0 mi NNE 13.8 mph 25.3 mph N/A   Scattered Clouds
11:54 AM 82.9 °F 87.5 °F 71.1 °F 67% 30.05 in 10.0 mi NE 15.0 mph 27.6 mph N/A   Scattered Clouds
12:54 PM 82.9 °F 87.0 °F 70.0 °F 65% 30.04 in 10.0 mi NNE 12.7 mph 27.6 mph N/A   Partly Cloudy
1:54 PM 82.9 °F 86.5 °F 69.1 °F 63% 30.01 in 10.0 mi NE 21.9 mph 28.8 mph N/A   Clear
2:54 PM 82.0 °F 85.5 °F 69.1 °F 65% 30.00 in 10.0 mi NNE 16.1 mph 25.3 mph N/A   Scattered Clouds
3:54 PM 80.1 °F 83.2 °F 70.0 °F 71% 30.00 in 10.0 mi NNE 16.1 mph 25.3 mph N/A   Scattered Clouds
4:54 PM 81.0 °F 84.4 °F 70.0 °F 69% 30.01 in 10.0 mi NE 17.3 mph 26.5 mph 0.00 in   Scattered Clouds
5:54 PM 78.1 °F - 70.0 °F 76% 30.02 in 10.0 mi NE 10.4 mph 29.9 mph N/A   Scattered Clouds
6:54 PM 75.9 °F - 72.0 °F 87% 30.04 in 10.0 mi NNE 9.2 mph - N/A   Clear
7:54 PM 75.9 °F - 71.1 °F 85% 30.05 in 10.0 mi NE 9.2 mph 17.3 mph N/A   Clear
8:54 PM 75.0 °F - 70.0 °F 84% 30.07 in 10.0 mi NE 13.8 mph 21.9 mph 0.00 in   Clear
9:54 PM 75.0 °F - 72.0 °F 90% 30.08 in 10.0 mi ENE 13.8 mph 19.6 mph 0.00 in   Scattered Clouds
10:54 PM 75.0 °F - 71.1 °F 87% 30.08 in 10.0 mi NE 8.1 mph 16.1 mph N/A   Clear
11:54 PM 75.0 °F - 72.0 °F 90% 30.07 in 10.0 mi NE 8.1 mph - N/A   Clear